Location: Zagreb
(45.8000°N, 16.0000°E)
Time: 01:18:23
(UTC+01:00)

SR - Pass Details

Date: 14 August 2020
Orbit: 576 x 879 km, 66.7° (Epoch: 15 January)

Event Time Altitude Azimuth Distance (km) Brightness Sun altitude
Rises 07:57:26 0° 304° (NW) 2,845 ? 20.0°
Reaches altitude 10° 08:01:39 10° 264° (W) 1,992 ? 20.7°
Maximum altitude 08:02:28 10° 254° (WSW) 1,974 ? 20.8°
Drops below altitude 10° 08:03:16 10° 243° (WSW) 2,016 ? 21.0°
Sets 08:07:43 0° 204° (SSW) 3,003 ? 21.8°
